Flag for U.S.A. Weather past 2 weeks in Wailuku, Hawaii, U.S.A.

Now
77 °F

Partly cloudy.


Feels Like: 79 °F
Forecast: 75 / 89 °F
Wind: 16 mph from Northeast

Location: Kahului Airport

Current Time: Aug 1, 2014 at 9:16:36 PM

Latest Report: Aug 1, 2014 at 7:54 PM


Visibility: 10 mi

Pressure: 29.99 "Hg

Humidity: 79%

Dew point: 70 °F

Location of WailukuLocation

Historic Weather in Wailuku — Graph

°F

Wailuku temperature yesterday

Maximum temperature yesterday: 90 °F (at 12:54 PM)
Minimum temperature yesterday: 69 °F (at 5:54 AM)
Average temperature yesterday: 81 °F

Past Weeks' High & Low Weather Summary

 TemperatureHumidityPressure
High90 °F (Jul 27, 12:54 PM)97% (Jul 20, 10:54 PM)30.09 "Hg (Jul 20, 10:54 PM)
Low64 °F (Jul 30, 4:39 AM)37% (Jul 18, 2:54 PM)29.88 "Hg (Jul 20, 2:05 AM)
Average79 °F71%29.99 "Hg
* Reported Jul 17 7:54 PM — Aug 1 7:54 PM, Wailuku, Weather by CustomWeather, © 2014

Note: Actual official high and low records may vary slightly from our data, if they occured in-between our weather recording intervals... More about our weather records

Advertising

Wailuku weather history for previous 24 hours

 ConditionsComfort  
Time TempWeatherWind HumidityBarometerVisibility
7:54 PM
Aug 1
77 °FPartly cloudy.16 mph79%29.99 "Hg10 mi
6:54 PM78 °FBroken clouds.16 mph76%29.97 "Hg10 mi
5:54 PM79 °FBroken clouds.18 mph74%29.96 "Hg10 mi
4:54 PM82 °FBroken clouds.20 mph67%29.94 "Hg10 mi
3:54 PM81 °FScattered clouds.24 mph65%29.95 "Hg10 mi
2:54 PM85 °FScattered clouds.20 mph55%29.95 "Hg10 mi
1:54 PM87 °FScattered clouds.18 mph57%29.96 "Hg10 mi
12:54 PM86 °FScattered clouds.23 mph59%29.99 "Hg10 mi
11:54 AM87 °FScattered clouds.17 mph55%30.00 "Hg10 mi
10:54 AM87 °FScattered clouds.23 mph53%30.01 "Hg10 mi
9:54 AM86 °FScattered clouds.21 mph55%30.01 "Hg10 mi
8:54 AM85 °FPassing clouds.14 mph51%30.01 "Hg10 mi
7:54 AM82 °FPassing clouds.10 mph56%30.01 "Hg10 mi
6:54 AM78 °FPassing clouds.10 mph69%30.00 "Hg10 mi
5:54 AM71 °FPassing clouds.5 mph81%29.99 "Hg8 mi
4:54 AM73 °FClear.5 mph79%29.98 "Hg5 mi
4:08 AM75 °FHaze.5 mph74%29.96 "Hg6 mi
3:59 AM73 °FHaze.3 mph78%29.96 "Hg2 mi
3:31 AM75 °FPartly cloudy.8 mph74%29.95 "Hg1 mi
3:04 AM77 °FPassing clouds.13 mph69%29.95 "Hg10 mi
2:54 AM76 °FClear.7 mph72%29.97 "Hg10 mi
1:54 AM77 °FPassing clouds.10 mph74%29.98 "Hg10 mi
12:54 AM77 °FPassing clouds.14 mph74%30.00 "Hg10 mi
11:54 PM
Jul 31
78 °FPassing clouds.18 mph71%30.01 "Hg10 mi
10:54 PM78 °FClear.17 mph74%30.02 "Hg10 mi
9:54 PM78 °FPassing clouds.18 mph74%30.01 "Hg10 mi
Weather by CustomWeather, © 2014

See weather overviewHow to use our weather pages